Wind_Speed
19 19 19 20 20 20 20 20 19 18 17 15 15 15 15 16 16 18 20 22 23 26 27 29 30 32 32 33 33 33 34 34 34 33 32 31 31 30 29 29 27 27 26
18 18 19 19 20 20 20 20 19 18 17 15 14 14 14 15 15 16 17 19 21 23 25 27 28 30 31 33 33 34 35 34 34 34 34 31 31 30 30 30 30 29 28
17 18 19 19 20 20 20 20 19 18 17 15 15 14 14 14 14 15 15 17 18 20 22 24 26 28 30 31 33 34 35 35 35 34 34 33 33 31 31 31 32 31 31
17 18 18 19 20 20 20 20 20 19 18 17 16 15 14 14 13 14 14 15 16 17 19 22 24 26 28 30 32 34 35 35 35 36 36 35 34 33 31 31 32 33 32
16 17 18 19 20 20 20 20 20 20 19 19 18 16 15 14 13 13 14 14 15 15 17 19 21 24 26 28 30 32 34 35 35 36 37 37 37 35 34 33 32 32 33
16 16 17 18 19 20 21 21 21 21 20 20 19 18 17 16 15 14 14 13 14 14 15 17 19 22 24 26 28 30 32 33 34 35 36 37 37 37 37 36 35 34 34
15 16 17 18 19 20 21 21 22 22 21 21 21 20 19 18 17 16 15 14 13 13 14 15 17 19 21 23 26 28 30 31 32 33 35 36 38 38 38 39 37 36 35
15 16 17 18 19 19 21 22 22 23 23 22 22 21 20 20 19 18 17 15 14 14 14 14 15 17 18 21 23 25 27 29 31 32 34 35 36 37 38 39 39 38 36
15 16 16 17 18 19 20 21 22 23 23 23 23 22 22 21 21 20 19 17 16 15 14 14 14 15 17 18 20 22 24 26 28 30 32 33 35 35 37 38 39 40 39
15 15 16 17 18 19 20 21 22 23 23 24 24 24 23 22 21 21 21 19 17 15 15 14 13 13 15 16 18 19 21 24 26 28 29 31 32 33 34 36 37 38 38
14 15 16 17 18 18 19 21 22 23 24 24 24 24 25 24 23 22 21 21 19 17 16 15 13 12 12 13 14 16 18 20 23 25 27 28 31 32 33 34 36 36 36
14 15 15 16 17 18 19 20 21 22 23 24 24 24 25 25 25 24 23 22 21 19 17 16 14 13 12 11 12 13 15 17 19 21 23 25 27 29 31 32 34 35 36
13 14 15 16 17 18 19 20 21 22 22 23 24 24 24 25 26 26 25 24 23 22 20 18 16 14 12 11 10 10 12 14 15 17 19 22 24 26 29 30 31 33 35
13 14 15 16 17 18 19 20 20 21 22 22 23 23 24 25 26 26 26 25 24 23 22 20 18 16 14 11 10 9 9 10 12 14 15 17 20 23 26 28 29 31 33
13 14 15 16 17 17 18 19 20 21 21 21 22 22 23 24 25 25 25 25 25 24 23 22 20 18 16 14 12 11 10 9 9 10 11 13 16 19 22 25 27 28 30
13 14 15 16 17 17 18 19 20 20 21 21 21 22 22 23 24 24 25 25 25 24 23 23 22 20 19 17 15 13 12 9 8 7 8 9 12 15 17 20 22 25 26
14 15 16 17 17 18 19 19 19 20 20 21 21 21 21 22 23 23 24 24 24 24 23 23 23 22 21 20 18 16 14 12 9 6 6 7 9 11 13 16 18 21 23
14 15 16 17 18 18 19 19 19 20 20 20 21 21 21 21 22 22 23 23 23 23 23 22 23 23 22 21 20 18 16 14 11 8 6 6 6 8 9 12 15 16 19
14 15 16 17 18 18 19 19 19 19 20 20 20 20 20 20 21 21 21 22 22 22 22 22 22 22 22 22 21 20 18 17 14 11 8 6 6 6 7 9 12 15 17
15 16 17 18 18 19 19 19 19 19 20 20 20 20 20 20 20 20 20 20 21 20 21 21 21 21 21 22 22 21 20 19 17 14 11 8 6 5 6 8 10 12 15
16 17 18 18 19 20 20 20 20 20 20 20 20 20 20 20 20 20 20 20 20 20 20 20 20 20 20 20 21 21 20 19 18 16 14 11 8 6 6 7 8 9 11
18 18 19 19 20 20 21 21 21 21 21 21 21 21 21 21 20 20 20 20 20 19 19 19 19 19 19 19 19 19 19 19 18 17 15 13 10 8 7 6 6 7 8
19 19 20 21 21 22 22 23 23 23 23 23 23 22 22 22 21 21 20 20 20 19 19 19 19 19 19 19 19 19 18 18 17 17 16 14 12 11 9 7 6 6 7
20 21 22 22 23 24 24 25 25 25 25 24 24 24 23 23 22 22 21 21 20 20 20 19 19 19 19 19 19 18 18 17 17 16 15 14 13 12 11 10 8 8 7
22 23 24 25 25 26 27 27 27 27 27 26 26 25 25 24 24 24 23 23 22 22 21 21 20 20 19 19 19 18 18 17 17 16 15 14 13 12 12 10 9 9 8
25 25 26 27 28 29 29 29 28 28 28 28 28 27 27 26 25 25 25 24 24 24 23 23 22 21 21 20 20 19 18 18 17 17 16 15 14 13 12 11 10 9 9
Wind_Direction
345 346 347 346 345 345 344 343 340 337 332 323 314 307 301 296 290 282 274 268 264 262 259 255 252 252 251 249 248 247 247 248 248 249 249 246 245 243 240 238 236 233 231
350 352 353 353 354 354 352 350 348 344 341 335 327 318 311 306 300 291 284 276 270 265 260 257 254 252 250 248 246 247 246 245 246 247 246 245 245 242 240 239 238 234 233
357 358 358 359 360 0 359 359 358 356 354 349 343 335 326 317 309 299 291 286 279 272 264 259 256 253 251 248 246 246 245 244 244 244 244 246 246 242 241 241 239 236 235
3 4 5 6 5 6 6 6 6 6 5 0 354 349 342 332 323 313 302 294 286 279 270 263 258 255 253 250 248 247 245 245 244 243 244 245 245 244 241 239 238 237 235
6 7 10 10 10 11 11 10 10 11 11 9 5 359 354 346 337 327 316 304 294 286 278 269 262 258 256 254 252 250 247 246 246 245 245 244 244 244 243 241 238 238 236
10 12 14 15 16 17 16 16 15 14 13 12 10 7 3 357 349 340 330 317 305 295 287 277 269 264 261 258 255 252 250 248 247 247 246 245 245 245 243 242 240 239 238
15 16 16 18 20 20 20 20 19 17 15 13 11 9 6 3 357 350 341 330 319 307 297 287 278 271 265 261 257 254 252 250 249 248 248 246 245 244 244 242 240 240 238
19 20 21 21 21 21 21 20 19 17 16 14 12 10 8 5 1 357 351 341 330 319 309 299 288 280 272 265 260 256 254 252 250 250 248 247 246 244 243 242 241 240 239
20 21 22 22 21 20 19 18 17 17 16 15 13 12 10 8 5 1 357 350 341 332 321 310 298 288 279 272 265 260 257 254 251 249 248 248 245 244 243 243 242 241 241
19 20 20 19 18 18 17 17 16 16 15 15 14 14 12 9 8 6 3 358 351 344 337 327 316 304 290 279 270 264 260 257 254 251 248 246 244 243 242 242 242 241 241
15 16 16 16 16 15 15 15 15 15 15 15 15 15 15 13 11 9 7 5 1 355 348 342 333 322 310 293 279 271 264 260 256 253 250 247 244 242 242 242 241 241 241
10 10 11 11 12 12 12 12 12 12 13 13 14 14 14 14 13 11 9 9 8 4 360 354 347 337 327 311 295 283 274 267 262 257 253 249 245 243 241 240 240 241 241
5 6 6 7 7 8 9 9 10 11 12 13 14 15 15 16 17 16 16 14 13 11 9 7 2 355 347 334 318 300 286 277 271 263 256 250 245 243 240 240 240 240 240
2 2 3 4 4 5 6 6 7 9 10 11 13 14 15 16 17 18 19 19 19 18 18 15 13 9 4 357 345 330 308 290 279 271 264 254 245 242 240 239 239 240 241
359 0 1 1 1 2 3 4 5 6 7 9 10 12 13 14 16 17 18 19 20 21 21 20 19 17 14 9 359 349 337 318 296 280 269 258 248 245 241 239 238 240 241
356 357 358 358 358 359 359 1 2 4 5 6 7 9 10 11 13 14 16 18 19 20 21 22 22 21 20 18 14 9 360 346 326 302 282 266 253 247 242 237 236 238 239
352 353 355 355 356 356 357 358 359 1 2 3 4 5 7 8 10 11 13 15 17 19 20 21 22 22 21 20 18 15 12 4 352 329 301 279 264 252 243 240 239 239 239
345 347 349 350 351 353 354 355 356 356 357 358 360 1 2 4 6 8 10 12 14 16 17 19 19 19 19 19 18 16 14 12 5 350 325 301 282 262 248 243 243 244 243
337 339 341 343 345 346 347 348 350 351 352 353 354 356 358 359 1 3 5 7 9 11 13 15 16 17 18 19 18 17 15 14 11 6 351 324 300 273 258 254 250 246 243
329 331 334 336 338 340 341 342 343 345 346 347 348 350 352 354 356 357 359 1 3 5 7 9 11 13 14 16 16 16 16 15 14 12 5 353 330 297 272 267 265 252 244
321 324 327 329 331 333 335 336 337 338 338 340 342 343 345 346 348 350 352 354 356 358 0 3 5 6 7 9 11 13 14 15 15 14 11 5 353 334 305 287 279 268 254
315 318 321 323 326 328 329 330 330 331 332 333 334 335 337 339 340 341 344 346 348 350 351 354 356 358 359 1 4 7 9 10 10 11 10 9 3 352 335 315 298 284 272
311 314 317 319 321 323 324 325 325 324 325 326 327 328 329 331 332 334 335 337 338 340 341 343 345 347 350 352 353 357 360 2 3 3 4 3 0 353 345 333 315 297 283
307 310 312 314 316 318 320 320 319 319 319 320 321 322 322 323 324 325 326 328 329 331 333 334 336 337 340 342 344 345 347 351 354 356 357 357 354 350 344 338 325 310 296
304 306 308 310 312 314 316 316 316 315 315 316 316 316 317 317 319 319 320 320 321 322 324 325 327 328 330 332 334 336 337 339 341 343 344 345 346 345 342 339 331 321 307
301 303 305 307 308 311 312 312 312 312 312 312 312 312 312 313 313 314 314 315 315 315 315 316 317 318 320 321 323 325 326 328 329 330 330 331 331 331 330 328 322 317 309
Height
5841 5837 5833 5829 5825 5820 5816 5812 5808 5804 5801 5798 5796 5795 5794 5793 5793 5792 5792 5793 5794 5795 5797 5799 5801 5804 5807 5810 5813 5816 5820 5823 5827 5830 5834 5837 5840 5844 5847 5850 5854 5857 5861
5840 5836 5832 5828 5824 5820 5815 5811 5806 5802 5799 5796 5794 5793 5791 5790 5789 5788 5788 5788 5788 5788 5790 5792 5794 5796 5799 5802 5806 5809 5812 5816 5819 5823 5826 5829 5834 5837 5840 5844 5847 5851 5854
5840 5836 5832 5828 5824 5819 5815 5810 5806 5802 5798 5795 5793 5791 5789 5787 5786 5785 5784 5783 5783 5783 5783 5785 5787 5789 5792 5795 5798 5801 5804 5808 5812 5815 5819 5822 5826 5829 5833 5837 5840 5844 5848
5840 5836 5832 5828 5824 5820 5815 5811 5807 5803 5799 5795 5792 5790 5787 5785 5783 5782 5780 5779 5778 5778 5778 5779 5780 5782 5784 5787 5790 5793 5796 5800 5804 5807 5811 5815 5818 5822 5826 5830 5833 5836 5841
5841 5837 5833 5829 5825 5820 5816 5812 5808 5804 5800 5796 5793 5789 5786 5784 5782 5779 5777 5776 5775 5774 5773 5774 5775 5776 5777 5779 5782 5785 5788 5791 5795 5799 5802 5806 5809 5813 5818 5822 5825 5829 5834
5841 5838 5834 5830 5826 5822 5818 5813 5809 5805 5801 5797 5793 5790 5786 5783 5780 5778 5775 5773 5771 5770 5769 5769 5769 5770 5771 5773 5775 5777 5780 5783 5787 5790 5793 5797 5801 5805 5809 5813 5817 5822 5826
5842 5839 5835 5831 5827 5823 5819 5815 5811 5807 5802 5798 5794 5790 5786 5783 5779 5776 5774 5771 5769 5767 5766 5765 5764 5765 5765 5766 5768 5769 5772 5775 5778 5781 5785 5788 5792 5796 5801 5805 5809 5814 5818
5843 5840 5836 5833 5829 5825 5821 5817 5813 5808 5804 5799 5795 5791 5786 5783 5779 5775 5772 5769 5766 5764 5762 5761 5760 5759 5759 5760 5761 5762 5765 5767 5769 5772 5776 5779 5783 5787 5791 5796 5801 5805 5810
5844 5841 5838 5834 5831 5827 5823 5819 5814 5810 5805 5801 5796 5792 5787 5783 5779 5775 5771 5767 5764 5761 5759 5757 5755 5755 5754 5754 5754 5756 5757 5759 5761 5764 5767 5771 5774 5778 5782 5787 5791 5797 5801
5846 5842 5839 5836 5832 5828 5824 5820 5816 5812 5807 5802 5798 5793 5788 5783 5779 5775 5770 5766 5762 5759 5756 5753 5752 5750 5749 5749 5749 5750 5750 5752 5754 5756 5759 5762 5765 5769 5773 5778 5783 5787 5792
5847 5844 5840 5837 5833 5830 5826 5822 5818 5813 5809 5804 5799 5794 5789 5784 5780 5775 5770 5766 5761 5757 5754 5751 5749 5747 5745 5744 5744 5744 5744 5745 5747 5749 5751 5754 5757 5761 5765 5770 5774 5779 5784
5848 5844 5841 5838 5834 5831 5827 5823 5819 5815 5810 5805 5801 5796 5791 5786 5781 5776 5771 5766 5761 5757 5753 5750 5747 5744 5742 5741 5740 5740 5740 5740 5741 5742 5744 5746 5749 5753 5757 5762 5766 5771 5775
5848 5845 5842 5839 5835 5832 5828 5824 5820 5816 5811 5807 5802 5797 5793 5788 5783 5777 5772 5767 5762 5757 5753 5750 5746 5743 5741 5739 5737 5736 5736 5736 5736 5736 5738 5739 5743 5746 5750 5754 5758 5762 5767
5848 5846 5842 5839 5836 5832 5829 5825 5821 5817 5812 5808 5804 5799 5795 5790 5785 5779 5774 5769 5764 5759 5755 5751 5747 5744 5741 5738 5736 5734 5733 5732 5732 5732 5733 5734 5736 5739 5743 5747 5751 5754 5759
5849 5846 5843 5839 5836 5833 5829 5825 5821 5817 5813 5809 5805 5800 5796 5791 5787 5782 5777 5772 5767 5762 5757 5753 5749 5745 5742 5739 5736 5734 5732 5730 5729 5729 5729 5730 5731 5734 5737 5740 5744 5747 5751
5848 5846 5843 5839 5836 5833 5829 5826 5822 5818 5814 5810 5806 5802 5797 5793 5788 5784 5779 5774 5769 5764 5760 5756 5751 5747 5743 5740 5737 5734 5731 5729 5727 5726 5726 5727 5727 5729 5731 5734 5737 5741 5744
5848 5845 5842 5839 5836 5833 5829 5826 5822 5818 5814 5810 5806 5802 5798 5794 5790 5785 5781 5776 5772 5767 5763 5758 5754 5750 5746 5742 5738 5735 5732 5729 5727 5726 5725 5725 5725 5726 5727 5729 5732 5735 5737
5847 5844 5841 5838 5835 5832 5829 5825 5821 5818 5814 5810 5806 5802 5799 5795 5790 5786 5782 5778 5774 5769 5765 5761 5757 5752 5748 5744 5740 5736 5733 5730 5727 5725 5724 5724 5723 5724 5725 5726 5728 5730 5732
5845 5843 5840 5837 5834 5831 5828 5824 5821 5817 5814 5810 5806 5802 5799 5795 5791 5787 5783 5779 5775 5771 5767 5763 5759 5755 5750 5746 5742 5738 5735 5731 5728 5726 5724 5723 5723 5722 5723 5723 5724 5726 5727
5843 5841 5838 5836 5833 5830 5826 5823 5820 5816 5813 5809 5806 5802 5798 5795 5791 5787 5784 5780 5776 5772 5768 5765 5761 5757 5753 5749 5744 5740 5736 5733 5730 5727 5725 5723 5722 5722 5721 5722 5722 5722 5723
5841 5839 5836 5833 5831 5828 5824 5821 5818 5815 5811 5808 5804 5801 5797 5794 5790 5787 5783 5780 5776 5773 5769 5765 5762 5758 5754 5750 5746 5743 5739 5735 5732 5729 5726 5724 5722 5721 5720 5720 5720 5720 5720
5838 5836 5833 5831 5828 5825 5822 5819 5815 5812 5809 5805 5802 5799 5796 5793 5789 5786 5783 5779 5776 5773 5769 5766 5762 5759 5755 5752 5748 5744 5741 5737 5734 5731 5728 5725 5723 5722 5720 5719 5718 5718 5718
5834 5832 5830 5827 5824 5822 5819 5816 5812 5809 5806 5803 5799 5796 5793 5790 5787 5784 5781 5778 5775 5772 5769 5765 5762 5759 5755 5752 5748 5745 5742 5738 5735 5732 5729 5726 5724 5722 5720 5718 5717 5717 5717
5830 5828 5826 5823 5820 5818 5815 5811 5808 5805 5802 5799 5796 5793 5790 5787 5784 5781 5778 5775 5772 5770 5767 5764 5761 5758 5754 5751 5748 5745 5742 5739 5736 5732 5730 5727 5724 5722 5720 5718 5717 5716 5715
5825 5823 5821 5818 5815 5813 5810 5807 5803 5800 5797 5794 5791 5789 5786 5783 5780 5777 5774 5772 5769 5766 5764 5761 5758 5755 5753 5750 5747 5744 5741 5738 5735 5732 5730 5727 5724 5722 5720 5718 5716 5715 5714
5820 5817 5815 5812 5809 5807 5804 5801 5797 5794 5791 5788 5785 5783 5780 5777 5775 5773 5770 5767 5764 5762 5759 5757 5754 5752 5749 5746 5744 5741 5739 5736 5734 5731 5728 5726 5724 5721 5719 5717 5716 5714 5713